Location: Emblem
(62.4273°N, 6.4710°E)
Time: 02:22:03
(UTC+02:00)

UWE-3 - Pass Details

Date: 27 March 2023
Orbit: 577 x 669 km, 97.7° (Epoch: 06 June)

Event Time Altitude Azimuth Distance (km) Brightness Sun altitude
Rises 03:29:39 0° 20° (NNE) 3,030 ? -21.9°
Reaches altitude 10° 03:32:23 10° 36° (NE) 2,101 ? -21.7°
Maximum altitude 03:35:56 22° 87° (E) 1,453 ? -21.5°
Enters shadow 03:39:22 10° 137° (SE) 2,041 ? -21.3°
